Location: Melbourne
(37.8666°S, 145.1333°E)
Time: 12:46:18
(UTC+10:00)

Hubble Space Telescope - Visible Passes

Search period start: 25 April 2017 00:00
Search period end: 05 May 2017 00:00
Orbit: 538 x 542 km, 28.5° (Epoch: 23 April)

Date Brightness Start Highest point End Pass type
(mag) Time Alt. Az. Time Alt. Az. Time Alt. Az.
25 Apr 2.6 05:17:16 19° NNW 05:17:50 19° N 05:20:52 10° NE visible
26 Apr 2.7 05:07:54 18° N 05:07:54 18° N 05:10:32 10° NNE visible
27 Apr 3.1 04:58:32 15° N 04:58:32 15° N 05:00:08 10° NNE visible
28 Apr 3.4 04:49:13 11° N 04:49:13 11° N 04:49:35 10° NNE visible
